Location: Riddle Hill
(39.7867°N, 89.7645°W)
Time: 21:56:32
(UTC+00:00)

Cosmos 1302 Rocket - Pass Details

Date: 29 October 2020
Orbit: 756 x 777 km, 74.0° (Epoch: 30 November)

Event Time Altitude Azimuth Distance (km) Brightness Sun altitude
Rises 23:34:04 0° 200° (SSW) 3,220 7.7 -7.2°
Reaches altitude 10° 23:36:25 10° 201° (SSW) 2,301 7.0 -7.6°
Maximum altitude 23:41:39 81° 289° (WNW) 785 4.2 -8.6°
Drops below altitude 10° 23:46:58 10° 17° (NNE) 2,328 6.2 -9.6°
Sets 23:49:22 0° 18° (NNE) 3,262 7.0 -10.1°
